Change the Weather History Date:

Friday, March 14, 2014

  Actual Average Record
Temperature  
Mean Temperature 42 °F 41 °F  
Max Temperature 57 °F 50 °F 78 °F (2012)
Min Temperature 27 °F 31 °F 24 °F (2005)
Degree Days  
Heating Degree Days 23 24  
Month to date heating degree days 370  
Since 1 July heating degree days 4273  
Cooling Degree Days 0 0  
Month to date cooling degree days 0  
Year to date cooling degree days 0  
Moisture  
Dew Point 13 °F    
Average Humidity 32    
Maximum Humidity 45    
Minimum Humidity 23    
Precipitation  
Precipitation 0.00 in 0.11 in 1.05 in (1999)
Month to date precipitation 1.24  
Year to date precipitation 6.47  
Sea Level Pressure  
Sea Level Pressure 30.06 in    
Wind  
Wind Speed 11 mph (South)    
Max Wind Speed 21 mph    
Max Gust Speed 30 mph    
Visibility 10 miles    
Events      
T = Trace of Precipitation, MM = Missing Value Source: NWS Daily Summary

Daily Weather History Graph

Daily Weather History Graph

Search for Another Location

Airport or City:

Trip Planner

Search our weather history database for the weather conditions in past years. The results will help you decide how hot, cold, wet, or windy it might be!

Date:

Astronomy

Mar. 14, 2014 Rise Set
Actual Time 7:23 AM EDT 7:16 PM EDT
Civil Twilight 6:57 AM EDT 7:43 PM EDT
Nautical Twilight 6:25 AM EDT 8:15 PM EDT
Astronomical Twilight 5:54 AM EDT 8:46 PM EDT
Moon 5:37 PM EDT (3/14) 6:02 AM EDT (3/14)
Length of Visible Light 12h 46m
Length of Day
11h 52m
Waxing Gibbous, 96% of the Moon is Illuminated
Mar 14
Waxing Gibbous
Mar 16
Full
Mar 23
Last Quarter
Mar 30
New
Apr 7
First Quarter

Hourly Weather History & Observations

Time (EDT) Temp. Windchill Dew Point Humidity Pressure Visibility Wind Dir Wind Speed Gust Speed Precip Events Conditions
12:53 AM 27.0 °F 19.5 °F 5.0 °F 39% 30.19 in 10.0 mi WSW 6.9 mph - N/A   Clear
1:53 AM 28.0 °F 20.8 °F 5.0 °F 38% 30.18 in 10.0 mi SW 6.9 mph - N/A   Overcast
2:53 AM 28.0 °F 24.2 °F 6.1 °F 39% 30.20 in 10.0 mi Variable 3.5 mph - N/A   Overcast
3:53 AM 28.0 °F 20.8 °F 9.0 °F 45% 30.19 in 10.0 mi South 6.9 mph - N/A   Overcast
4:53 AM 28.9 °F 21.1 °F 7.0 °F 40% 30.19 in 10.0 mi South 8.1 mph - N/A   Overcast
5:53 AM 28.9 °F 21.9 °F 8.1 °F 41% 30.20 in 10.0 mi South 6.9 mph - N/A   Overcast
6:53 AM 30.0 °F 21.1 °F 8.1 °F 40% 30.20 in 10.0 mi South 10.4 mph - N/A   Overcast
7:53 AM 30.0 °F 21.7 °F 8.1 °F 40% 30.21 in 10.0 mi SSW 9.2 mph - N/A   Overcast
8:53 AM 30.9 °F 22.8 °F 9.0 °F 40% 30.20 in 10.0 mi South 9.2 mph - N/A   Overcast
9:53 AM 34.0 °F 25.5 °F 10.0 °F 37% 30.20 in 10.0 mi South 11.5 mph - N/A   Overcast
10:53 AM 37.9 °F 30.5 °F 9.0 °F 30% 30.17 in 10.0 mi South 11.5 mph - N/A   Clear
11:53 AM 42.1 °F 34.5 °F 10.0 °F 27% 30.14 in 10.0 mi South 15.0 mph - N/A   Clear
12:53 PM 46.0 °F 39.3 °F 12.9 °F 26% 30.11 in 10.0 mi South 16.1 mph - N/A   Clear
1:53 PM 50.0 °F - 16.0 °F 26% 30.07 in 10.0 mi SSE 16.1 mph - N/A   Clear
2:53 PM 53.1 °F - 19.0 °F 26% 30.01 in 10.0 mi South 16.1 mph - N/A   Clear
3:53 PM 55.0 °F - 19.0 °F 24% 29.97 in 10.0 mi South 20.7 mph 29.9 mph N/A   Clear
4:53 PM 57.0 °F - 19.0 °F 23% 29.93 in 10.0 mi South 17.3 mph 27.6 mph N/A   Clear
5:53 PM 55.9 °F - 19.9 °F 25% 29.90 in 10.0 mi South 16.1 mph - N/A   Clear
6:53 PM 55.0 °F - 21.0 °F 27% 29.89 in 10.0 mi South 15.0 mph - N/A   Clear
7:53 PM 54.0 °F - 19.9 °F 26% 29.88 in 10.0 mi South 17.3 mph - N/A   Clear
8:53 PM 54.0 °F - 19.0 °F 25% 29.88 in 10.0 mi South 19.6 mph 29.9 mph N/A   Clear
9:53 PM 53.1 °F - 19.0 °F 26% 29.86 in 10.0 mi South 19.6 mph 24.2 mph N/A   Partly Cloudy
10:53 PM 53.1 °F - 19.0 °F 26% 29.86 in 10.0 mi South 15.0 mph 26.5 mph N/A   Overcast
11:53 PM 52.0 °F - 19.9 °F 28% 29.85 in 10.0 mi South 12.7 mph - N/A   Overcast